• In Hungary
  • List of Countries
  • For 7 days
  • Water Temperature
  • Satellite Maps
  • Weather Map
  • News
  • Weather Widgets
  • user-avatar
    Login

    Hourly Weather Cambrils

    Today, 26 September, Wednesday

    Time Temperature Precipitation Wind Pressure Humidity
    00:00 +21°C° 0 mm 6 mps 769 mmHg 77%
    01:00 +21°C° 0 mm 7 mps 769 mmHg 76%
    02:00 +22°C° 0 mm 7 mps 769 mmHg 76%
    03:00 +22°C° 0 mm 7 mps 769 mmHg 75%
    04:00 +22°C° 0 mm 7 mps 769 mmHg 73%
    05:00 +21°C° 0 mm 7 mps 770 mmHg 71%
    06:00 +21°C° 0 mm 7 mps 770 mmHg 69%
    07:00 +22°C° 0 mm 7 mps 770 mmHg 65%
    08:00 +23°C° 0 mm 7 mps 770 mmHg 60%
    09:00 +24°C° 0 mm 8 mps 770 mmHg 56%
    10:00 +26°C° 0 mm 8 mps 770 mmHg 53%
    11:00 +27°C° 0 mm 8 mps 771 mmHg 50%
    12:00 +28°C° 0 mm 8 mps 771 mmHg 47%
    13:00 +27°C° 0 mm 8 mps 771 mmHg 49%
    14:00 +27°C° 0 mm 8 mps 770 mmHg 50%
    15:00 +27°C° 0 mm 7 mps 770 mmHg 51%
    16:00 +26°C° 0 mm 7 mps 770 mmHg 56%
    17:00 +24°C° 0 mm 6 mps 771 mmHg 62%
    18:00 +23°C° 0 mm 6 mps 771 mmHg 67%
    19:00 +22°C° 0 mm 5 mps 771 mmHg 70%
    20:00 +22°C° 0 mm 5 mps 771 mmHg 73%
    21:00 +21°C° 0 mm 4 mps 772 mmHg 76%
    22:00 +21°C° 0 mm 4 mps 772 mmHg 78%
    23:00 +20°C° 0 mm 4 mps 772 mmHg 79%

    Tomorrow, 27 September, Thursday

    Time Temperature Precipitation Wind Pressure Humidity
    00:00 +20°C° 0 mm 3 mps 771 mmHg 81%
    01:00 +20°C° 0 mm 3 mps 771 mmHg 82%
    02:00 +19°C° 0 mm 3 mps 771 mmHg 83%
    03:00 +19°C° 0 mm 3 mps 771 mmHg 84%
    04:00 +19°C° 0 mm 3 mps 771 mmHg 84%
    05:00 +18°C° 0 mm 2 mps 771 mmHg 85%
    06:00 +18°C° 0 mm 2 mps 770 mmHg 85%
    07:00 +20°C° 0 mm 2 mps 770 mmHg 77%
    08:00 +23°C° 0 mm 2 mps 771 mmHg 69%
    09:00 +24°C° 0 mm 2 mps 771 mmHg 61%
    10:00 +25°C° 0 mm 2 mps 770 mmHg 56%
    11:00 +27°C° 0 mm 2 mps 770 mmHg 50%
    12:00 +28°C° 0 mm 2 mps 769 mmHg 45%
    13:00 +28°C° 0 mm 3 mps 769 mmHg 44%
    14:00 +28°C° 0 mm 3 mps 768 mmHg 44%
    15:00 +29°C° 0 mm 3 mps 768 mmHg 43%
    16:00 +27°C° 0 mm 3 mps 767 mmHg 50%
    17:00 +26°C° 0 mm 2 mps 767 mmHg 57%
    18:00 +24°C° 0 mm 2 mps 767 mmHg 64%
    19:00 +23°C° 0 mm 2 mps 767 mmHg 69%
    20:00 +23°C° 0 mm 2 mps 767 mmHg 74%
    21:00 +22°C° 0 mm 1 mps 767 mmHg 78%
    22:00 +22°C° 0 mm 1 mps 767 mmHg 80%
    23:00 +21°C° 0 mm 1 mps 767 mmHg 81%

    Day after tomorrow, 28 September, Friday

    Time Temperature Precipitation Wind Pressure Humidity
    00:00 +21°C° 0 mm 1 mps 766 mmHg 82%
    01:00 +20°C° 0 mm 1 mps 766 mmHg 82%
    02:00 +20°C° 0 mm 1 mps 765 mmHg 83%
    03:00 +20°C° 0 mm 1 mps 765 mmHg 83%
    04:00 +20°C° 0 mm 1 mps 765 mmHg 83%
    05:00 +19°C° 0 mm 1 mps 765 mmHg 82%
    06:00 +19°C° 0 mm 1 mps 764 mmHg 82%
    07:00 +21°C° 0 mm 1 mps 764 mmHg 72%
    08:00 +24°C° 0 mm 1 mps 764 mmHg 62%
    09:00 +26°C° 0 mm 1 mps 764 mmHg 53%
    10:00 +27°C° 0 mm 2 mps 764 mmHg 48%
    11:00 +29°C° 0 mm 2 mps 764 mmHg 44%
    12:00 +30°C° 0 mm 2 mps 763 mmHg 39%
    13:00 +30°C° 0 mm 3 mps 763 mmHg 38%
    14:00 +31°C° 0 mm 3 mps 762 mmHg 37%
    15:00 +32°C° 0 mm 4 mps 761 mmHg 36%
    16:00 +30°C° 0 mm 3 mps 761 mmHg 41%
    17:00 +28°C° 0 mm 3 mps 761 mmHg 46%
    18:00 +26°C° 0 mm 3 mps 761 mmHg 51%
    19:00 +26°C° 0 mm 3 mps 761 mmHg 55%
    20:00 +25°C° 0 mm 3 mps 762 mmHg 58%
    21:00 +24°C° 0 mm 3 mps 762 mmHg 62%
    22:00 +24°C° 0 mm 2 mps 762 mmHg 63%
    23:00 +24°C° 0 mm 2 mps 762 mmHg 64%

    29 September, Saturday

    Time Temperature Precipitation Wind Pressure Humidity
    00:00 +23°C° 0 mm 2 mps 762 mmHg 65%
    01:00 +23°C° 0 mm 2 mps 761 mmHg 65%
    02:00 +23°C° 0 mm 2 mps 761 mmHg 64%
    03:00 +21°C° 0 mm 2 mps 761 mmHg 64%
    04:00 +21°C° 0 mm 2 mps 761 mmHg 64%
    05:00 +22°C° 0 mm 1 mps 761 mmHg 63%
    06:00 +22°C° 0 mm 1 mps 761 mmHg 62%
    07:00 +24°C° 0 mm 1 mps 761 mmHg 57%
    08:00 +26°C° 0 mm 1 mps 761 mmHg 51%
    09:00 +28°C° 0 mm 1 mps 761 mmHg 45%
    10:00 +29°C° 0 mm 1 mps 761 mmHg 41%
    11:00 +30°C° 0 mm 2 mps 761 mmHg 36%
    12:00 +31°C° 0 mm 2 mps 761 mmHg 32%
    13:00 +31°C° 0 mm 3 mps 761 mmHg 32%
    14:00 +33°C° 0 mm 4 mps 760 mmHg 31%
    15:00 +33°C° 0 mm 4 mps 760 mmHg 31%
    16:00 +30°C° 0 mm 4 mps 760 mmHg 37%
    17:00 +28°C° 0 mm 4 mps 760 mmHg 43%
    18:00 +26°C° 0 mm 4 mps 761 mmHg 49%
    19:00 +26°C° 0 mm 3 mps 761 mmHg 53%
    20:00 +25°C° 0 mm 3 mps 762 mmHg 57%
    21:00 +24°C° 0 mm 3 mps 762 mmHg 60%
    22:00 +24°C° 0 mm 3 mps 762 mmHg 61%
    23:00 +24°C° 0 mm 2 mps 762 mmHg 62%

    30 September, Sunday

    Time Temperature Precipitation Wind Pressure Humidity
    00:00 +23°C° 0 mm 2 mps 762 mmHg 62%
    01:00 +23°C° 0 mm 2 mps 762 mmHg 63%
    02:00 +23°C° 0 mm 1 mps 761 mmHg 63%
    03:00 +22°C° 0 mm 1 mps 761 mmHg 64%
    04:00 +22°C° 0 mm 1 mps 761 mmHg 65%
    05:00 +22°C° 0 mm 1 mps 761 mmHg 66%
    06:00 +21°C° 0 mm 1 mps 761 mmHg 67%
    07:00 +23°C° 0 mm 1 mps 761 mmHg 61%
    08:00 +25°C° 0 mm 2 mps 762 mmHg 54%
    09:00 +27°C° 0 mm 2 mps 762 mmHg 48%
    10:00 +28°C° 0 mm 2 mps 762 mmHg 45%
    11:00 +29°C° 0 mm 2 mps 761 mmHg 42%
    12:00 +30°C° 0 mm 3 mps 761 mmHg 39%
    13:00 +30°C° 0 mm 3 mps 761 mmHg 40%
    14:00 +30°C° 0 mm 3 mps 760 mmHg 41%
    15:00 +30°C° 0 mm 3 mps 760 mmHg 42%
    16:00 +29°C° 0 mm 3 mps 760 mmHg 50%
    17:00 +27°C° 0 mm 3 mps 760 mmHg 58%
    18:00 +25°C° 0 mm 3 mps 760 mmHg 66%
    19:00 +25°C° 0 mm 3 mps 761 mmHg 69%
    20:00 +24°C° 0 mm 3 mps 761 mmHg 72%
    21:00 +24°C° 0 mm 2 mps 761 mmHg 75%
    22:00 +23°C° 0 mm 2 mps 761 mmHg 76%
    23:00 +23°C° 0 mm 2 mps 761 mmHg 77%

    1 October, Monday

    Time Temperature Precipitation Wind Pressure Humidity
    00:00 +23°C° 0 mm 2 mps 761 mmHg 77%
    01:00 +21°C° 0 mm 2 mps 761 mmHg 77%
    02:00 +21°C° 0 mm 2 mps 761 mmHg 76%
    03:00 +21°C° 0 mm 2 mps 761 mmHg 75%
    04:00 +21°C° 0 mm 3 mps 761 mmHg 76%
    05:00 +20°C° 0 mm 3 mps 761 mmHg 77%
    06:00 +20°C° 0 mm 4 mps 761 mmHg 78%
    07:00 +21°C° 0.1 mm 4 mps 761 mmHg 71%
    08:00 +22°C° 0.1 mm 5 mps 761 mmHg 64%
    09:00 +23°C° 0.1 mm 5 mps 761 mmHg 57%
    10:00 +26°C° 0 mm 5 mps 761 mmHg 51%
    11:00 +27°C° 0 mm 5 mps 760 mmHg 45%
    12:00 +28°C° 0 mm 6 mps 760 mmHg 38%
    13:00 +28°C° 0 mm 6 mps 760 mmHg 36%
    14:00 +29°C° 0 mm 6 mps 759 mmHg 33%
    15:00 +29°C° 0 mm 6 mps 759 mmHg 30%
    16:00 +27°C° 0.1 mm 6 mps 759 mmHg 35%
    17:00 +24°C° 0.1 mm 7 mps 759 mmHg 39%
    18:00 +22°C° 0.1 mm 7 mps 759 mmHg 43%
    19:00 +21°C° 0.1 mm 7 mps 760 mmHg 48%
    20:00 +20°C° 0.1 mm 7 mps 760 mmHg 53%
    21:00 +18°C° 0.1 mm 8 mps 761 mmHg 57%
    22:00 +18°C° 0.4 mm 7 mps 761 mmHg 60%
    23:00 +17°C° 0.4 mm 7 mps 761 mmHg 62%
    Show more